Simultaneous Nadir Overpasses (SNOs) Predictions

Prediction of SNOs between GOES-16 and LANDSAT-8 Satellite Orbit:

Table of predicted SNOs for the next 14.0 days since TLE Epoch: 11/28/2025
Index Date Time (GOES-16) GOES-16 Lat,Lon LANDSAT-8 Lat,Lon Distance(km) Time Diff (sec)
1 11/29/2025 17:06:52 0.03,-104.69 -0.25,-103.28 159.87 80
2 11/30/2025 05:28:15 -0.03,-104.66 -0.85,-108.47 434.12 80
3 12/01/2025 16:54:40 0.03,-104.69 -0.90,-100.32 496.86 80
4 12/02/2025 05:16:03 -0.02,-104.66 -0.20,-105.51 97.36 80
5 12/04/2025 05:01:11 -0.02,-104.65 0.41,-102.55 239.07 80
6 12/04/2025 17:22:26 0.02,-104.69 0.65,-107.71 343.90 80
7 12/06/2025 17:10:13 0.03,-104.68 0.03,-104.75 7.57 80
8 12/08/2025 17:00:39 0.04,-104.68 -0.55,-101.77 329.73 80
9 12/09/2025 05:22:03 -0.04,-104.65 -0.53,-106.97 263.36 80
10 12/11/2025 05:07:10 -0.05,-104.65 0.12,-104.01 74.37 80
